| time (UTC) | temp F | wind direction | speed MPH | gust MPH | rain 1hr in | rain 24hr in | rain mn in | humidity % | barometer mb |
| 20260904150004 | 84 | 176 | 5.0 | 13.0 | 0.00 | 0.00 | 0.00 | 75 | 1011.6 |
| 20260904145404 | 84 | 179 | 6.0 | 13.0 | 0.00 | 0.00 | 0.00 | 77 | 1011.6 |
| 20260904144504 | 83 | 176 | 5.0 | 11.0 | 0.00 | 0.00 | 0.00 | 80 | 1011.6 |
| 20260904143604 | 83 | 177 | 4.0 | 10.0 | 0.00 | 0.00 | 0.00 | 82 | 1011.8 |
| 20260904142704 | 82 | 192 | 4.0 | 11.0 | 0.00 | 0.00 | 0.00 | 82 | 1011.7 |
| 20260904141804 | 82 | 166 | 3.0 | 7.0 | 0.00 | 0.00 | 0.00 | 84 | 1011.7 |
| 20260904140904 | 82 | 158 | 3.0 | 8.0 | 0.00 | 0.00 | 0.00 | 85 | 1011.6 |
| 20260904140004 | 82 | 155 | 3.0 | 9.0 | 0.00 | 0.00 | 0.00 | 86 | 1011.6 |
| 20260904135403 | 81 | 155 | 3.0 | 8.0 | 0.00 | 0.00 | 0.00 | 86 | 1011.6 |
| 20260904134504 | 80 | 158 | 3.0 | 8.0 | 0.00 | 0.00 | 0.00 | 88 | 1011.5 |
| 20260904133603 | 80 | 158 | 2.0 | 5.0 | 0.00 | 0.00 | 0.00 | 89 | 1011.4 |
| 20260904132704 | 79 | 152 | 2.0 | 9.0 | 0.00 | 0.00 | 0.00 | 90 | 1011.3 |
| 20260904131803 | 78 | 154 | 3.0 | 8.0 | 0.00 | 0.00 | 0.00 | 90 | 1011.3 |
| 20260904130904 | 78 | 151 | 3.0 | 8.0 | 0.00 | 0.00 | 0.00 | 90 | 1011.1 |
| 20260904130004 | 78 | 153 | 2.0 | 8.0 | 0.00 | 0.00 | 0.00 | 90 | 1011.1 |
| 20260904125404 | 78 | 161 | 1.0 | 5.0 | 0.00 | 0.00 | 0.00 | 90 | 1011.0 |
| 20260904124504 | 77 | 152 | 1.0 | 4.0 | 0.00 | 0.00 | 0.00 | 90 | 1010.9 |
| 20260904123604 | 77 | 148 | 1.0 | 6.0 | 0.00 | 0.00 | 0.00 | 90 | 1010.9 |
| 20260904122704 | 77 | 154 | 3.0 | 8.0 | 0.00 | 0.00 | 0.00 | 90 | 1010.8 |
| 20260904121804 | 77 | 149 | 3.0 | 6.0 | 0.00 | 0.00 | 0.00 | 90 | 1010.6 |
| 20260904120903 | 77 | 149 | 1.0 | 6.0 | 0.00 | 0.00 | 0.00 | 90 | 1010.7 |
| 20260904120004 | 77 | 142 | 1.0 | 5.0 | 0.00 | 0.00 | 0.00 | 89 | 1010.6 |
| 20260904115404 | 77 | 152 | 1.0 | 5.0 | 0.00 | 0.00 | 0.00 | 89 | 1010.7 |
| 20260904114504 | 77 | 157 | 1.0 | 5.0 | 0.00 | 0.00 | 0.00 | 89 | 1010.5 |
| 20260904113604 | 78 | 159 | 0.0 | 1.0 | 0.00 | 0.00 | 0.00 | 89 | 1010.5 |
| 20260904112704 | 78 | 160 | 1.0 | 4.0 | 0.00 | 0.00 | 0.00 | 89 | 1010.4 |
| 20260904111804 | 78 | 145 | 1.0 | 2.0 | 0.00 | 0.00 | 0.00 | 88 | 1010.3 |
| 20260904110903 | 78 | 155 | 1.0 | 5.0 | 0.00 | 0.00 | 0.00 | 88 | 1010.5 |
| 20260904110004 | 78 | 163 | 1.0 | 5.0 | 0.00 | 0.00 | 0.00 | 88 | 1010.2 |
| 20260904105404 | 78 | 164 | 1.0 | 5.0 | 0.00 | 0.00 | 0.00 | 88 | 1010.2 |
| 20260904104524 | 78 | 160 | 1.0 | 4.0 | 0.00 | 0.00 | 0.00 | 88 | 1010.1 |
| 20260904103625 | 78 | 161 | 2.0 | 6.0 | 0.00 | 0.00 | 0.00 | 88 | 1010.1 |
| 20260904102704 | 78 | 159 | 1.0 | 4.0 | 0.00 | 0.00 | 0.00 | 88 | 1010.1 |
| 20260904101804 | 78 | 170 | 2.0 | 6.0 | 0.00 | 0.00 | 0.00 | 88 | 1010.0 |
| 20260904100904 | 78 | 162 | 2.0 | 6.0 | 0.00 | 0.00 | 0.00 | 88 | 1010.0 |
| 20260904100004 | 78 | 156 | 2.0 | 6.0 | 0.00 | 0.00 | 0.00 | 88 | 1010.0 |
| 20260904095404 | 78 | 162 | 2.0 | 6.0 | 0.00 | 0.00 | 0.00 | 88 | 1010.1 |
| 20260904094504 | 78 | 163 | 2.0 | 6.0 | 0.00 | 0.00 | 0.00 | 88 | 1010.0 |
| 20260904093603 | 78 | 160 | 2.0 | 6.0 | 0.00 | 0.00 | 0.00 | 88 | 1009.9 |
| 20260904092704 | 78 | 159 | 2.0 | 5.0 | 0.00 | 0.00 | 0.00 | 88 | 1009.9 |
| 20260904091804 | 78 | 162 | 2.0 | 6.0 | 0.00 | 0.00 | 0.00 | 88 | 1010.0 |
| 20260904090903 | 78 | 164 | 1.0 | 5.0 | 0.00 | 0.00 | 0.00 | 88 | 1009.9 |
| 20260904090024 | 78 | 163 | 2.0 | 6.0 | 0.00 | 0.00 | 0.00 | 88 | 1009.8 |
| 20260904085404 | 78 | 160 | 2.0 | 5.0 | 0.00 | 0.00 | 0.00 | 87 | 1009.9 |
| 20260904084504 | 78 | 159 | 2.0 | 6.0 | 0.00 | 0.00 | 0.00 | 87 | 1009.8 |
| 20260904083604 | 78 | 162 | 3.0 | 7.0 | 0.00 | 0.00 | 0.00 | 87 | 1009.8 |
| 20260904082704 | 78 | 162 | 3.0 | 8.0 | 0.00 | 0.00 | 0.00 | 87 | 1009.9 |
| 20260904081804 | 78 | 161 | 2.0 | 6.0 | 0.00 | 0.00 | 0.00 | 87 | 1009.8 |
| 20260904080924 | 77 | 162 | 3.0 | 7.0 | 0.00 | 0.00 | 0.00 | 87 | 1009.8 |
| 20260904080004 | 77 | 162 | 3.0 | 7.0 | 0.00 | 0.00 | 0.00 | 87 | 1009.9 |
| 20260904075404 | 77 | 162 | 3.0 | 7.0 | 0.00 | 0.00 | 0.00 | 87 | 1009.9 |
| 20260904074525 | 77 | 157 | 2.0 | 6.0 | 0.00 | 0.00 | 0.00 | 87 | 1009.9 |
| 20260904073625 | 77 | 150 | 2.0 | 6.0 | 0.00 | 0.00 | 0.00 | 87 | 1010.1 |
| 20260904072703 | 77 | 158 | 2.0 | 5.0 | 0.00 | 0.00 | 0.00 | 86 | 1010.1 |
| 20260904071825 | 77 | 153 | 1.0 | 5.0 | 0.00 | 0.00 | 0.00 | 86 | 1010.2 |
| 20260904070904 | 77 | 133 | 1.0 | 3.0 | 0.00 | 0.00 | 0.00 | 86 | 1010.2 |
| 20260904070004 | 77 | 146 | 1.0 | 4.0 | 0.00 | 0.00 | 0.00 | 86 | 1010.3 |
| 20260904065403 | 77 | 146 | 1.0 | 3.0 | 0.00 | 0.00 | 0.00 | 86 | 1010.2 |
| 20260904064504 | 77 | 154 | 0.0 | 4.0 | 0.00 | 0.00 | 0.00 | 85 | 1010.3 |
| 20260904063604 | 77 | 155 | 1.0 | 4.0 | 0.00 | 0.00 | 0.00 | 85 | 1010.3 |
| 20260904062725 | 77 | 156 | 2.0 | 5.0 | 0.00 | 0.00 | 0.00 | 85 | 1010.2 |
| 20260904061804 | 77 | 162 | 3.0 | 7.0 | 0.00 | 0.00 | 0.00 | 85 | 1010.2 |
| 20260904060903 | 77 | 154 | 2.0 | 6.0 | 0.00 | 0.00 | 0.00 | 84 | 1010.2 |
| 20260904060003 | 77 | 155 | 2.0 | 4.0 | 0.00 | 0.00 | 0.00 | 84 | 1010.3 |
| 20260904055404 | 77 | 154 | 2.0 | 6.0 | 0.00 | 0.00 | 0.00 | 84 | 1010.3 |
| 20260904054504 | 77 | 160 | 3.0 | 7.0 | 0.00 | 0.00 | 0.00 | 83 | 1010.3 |
| 20260904053604 | 77 | 163 | 3.0 | 8.0 | 0.00 | 0.00 | 0.00 | 83 | 1010.2 |
| 20260904052704 | 78 | 162 | 3.0 | 6.0 | 0.00 | 0.00 | 0.00 | 82 | 1010.2 |
| 20260904051804 | 78 | 149 | 3.0 | 7.0 | 0.00 | 0.00 | 0.00 | 81 | 1010.3 |
| 20260904050904 | 78 | 153 | 3.0 | 7.0 | 0.00 | 0.00 | 0.00 | 80 | 1010.3 |
| 20260904050025 | 78 | 149 | 2.0 | 6.0 | 0.00 | 0.00 | 0.00 | 80 | 1010.3 |
| 20260904045403 | 78 | 145 | 2.0 | 5.0 | 0.00 | 0.00 | 0.00 | 79 | 1010.3 |
| 20260904044504 | 78 | 145 | 2.0 | 5.0 | 0.00 | 0.00 | 0.00 | 78 | 1010.2 |
| 20260904043603 | 78 | 147 | 1.0 | 5.0 | 0.00 | 0.00 | 0.00 | 78 | 1010.5 |
| 20260904042704 | 79 | 152 | 2.0 | 4.0 | 0.00 | 0.00 | 0.00 | 77 | 1010.3 |
| 20260904041824 | 79 | 149 | 2.0 | 6.0 | 0.00 | 0.00 | 0.00 | 77 | 1010.2 |
| 20260904040904 | 79 | 139 | 3.0 | 8.0 | 0.00 | 0.00 | 0.00 | 76 | 1010.3 |
| 20260904040004 | 79 | 141 | 3.0 | 8.0 | 0.00 | 0.00 | 0.00 | 76 | 1010.2 |
| 20260904035404 | 79 | 142 | 2.0 | 6.0 | 0.00 | 0.00 | 0.00 | 76 | 1010.3 |
| 20260904034504 | 80 | 142 | 3.0 | 8.0 | 0.00 | 0.00 | 0.00 | 76 | 1010.2 |
| 20260904033603 | 80 | 144 | 4.0 | 10.0 | 0.00 | 0.00 | 0.00 | 76 | 1010.2 |
| 20260904032724 | 80 | 146 | 3.0 | 9.0 | 0.00 | 0.00 | 0.00 | 75 | 1010.2 |
| 20260904031803 | 80 | 150 | 2.0 | 9.0 | 0.00 | 0.00 | 0.00 | 75 | 1010.1 |
| 20260904030925 | 80 | 145 | 4.0 | 9.0 | 0.00 | 0.00 | 0.00 | 74 | 1010.0 |
| 20260904030004 | 80 | 148 | 3.0 | 9.0 | 0.00 | 0.00 | 0.00 | 73 | 1009.9 |
| 20260904025404 | 80 | 148 | 3.0 | 7.0 | 0.00 | 0.00 | 0.00 | 73 | 1009.8 |
| 20260904024504 | 81 | 147 | 4.0 | 7.0 | 0.00 | 0.00 | 0.00 | 73 | 1009.7 |
| 20260904023604 | 81 | 148 | 5.0 | 10.0 | 0.00 | 0.00 | 0.00 | 72 | 1009.5 |
| 20260904022703 | 81 | 142 | 5.0 | 10.0 | 0.00 | 0.00 | 0.00 | 71 | 1009.4 |
| 20260904021804 | 81 | 142 | 5.0 | 9.0 | 0.00 | 0.00 | 0.00 | 70 | 1009.3 |
| 20260904020903 | 82 | 144 | 4.0 | 10.0 | 0.00 | 0.00 | 0.00 | 70 | 1009.2 |
| 20260904020025 | 82 | 144 | 4.0 | 11.0 | 0.00 | 0.00 | 0.00 | 69 | 1009.1 |
| 20260904015424 | 82 | 143 | 4.0 | 12.0 | 0.00 | 0.00 | 0.00 | 69 | 1008.9 |
| 20260904014503 | 82 | 141 | 4.0 | 12.0 | 0.00 | 0.00 | 0.00 | 69 | 1008.7 |
| 20260904013604 | 83 | 145 | 5.0 | 12.0 | 0.00 | 0.00 | 0.00 | 69 | 1008.6 |
| 20260904012725 | 83 | 147 | 5.0 | 11.0 | 0.00 | 0.00 | 0.00 | 68 | 1008.4 |
| 20260904011825 | 83 | 148 | 6.0 | 17.0 | 0.00 | 0.00 | 0.00 | 68 | 1008.3 |
| 20260904010924 | 83 | 144 | 5.0 | 12.0 | 0.00 | 0.00 | 0.00 | 68 | 1008.3 |
| 20260904010004 | 84 | 142 | 6.0 | 12.0 | 0.00 | 0.00 | 0.00 | 68 | 1008.3 |
| 20260904005404 | 84 | 143 | 5.0 | 15.0 | 0.00 | 0.00 | 0.00 | 67 | 1008.4 |
| 20260904004504 | 84 | 146 | 5.0 | 11.0 | 0.00 | 0.00 | 0.00 | 66 | 1008.4 |
| 20260904003604 | 85 | 154 | 6.0 | 12.0 | 0.00 | 0.00 | 0.00 | 64 | 1008.4 |
| 20260904002704 | 86 | 154 | 5.0 | 12.0 | 0.00 | 0.00 | 0.00 | 62 | 1008.4 |
| 20260904001825 | 86 | 150 | 5.0 | 13.0 | 0.00 | 0.00 | 0.00 | 61 | 1008.3 |
| 20260904000904 | 87 | 155 | 5.0 | 13.0 | 0.00 | 0.00 | 0.00 | 60 | 1008.2 |
| 20260904000004 | 88 | 150 | 5.0 | 14.0 | 0.00 | 0.00 | 0.00 | 61 | 1008.1 |
| 20260903235403 | 88 | 154 | 6.0 | 15.0 | 0.00 | 0.00 | 0.00 | 61 | 1008.0 |
| 20260903234503 | 89 | 142 | 6.0 | 15.0 | 0.00 | 0.00 | 0.00 | 61 | 1007.9 |
| 20260903233603 | 90 | 148 | 5.0 | 12.0 | 0.00 | 0.00 | 0.00 | 61 | 1007.8 |
| 20260903232703 | 90 | 145 | 5.0 | 12.0 | 0.00 | 0.00 | 0.00 | 61 | 1007.7 |
| 20260903231803 | 90 | 140 | 5.0 | 16.0 | 0.00 | 0.00 | 0.00 | 61 | 1007.8 |
| 20260903230903 | 90 | 141 | 5.0 | 12.0 | 0.00 | 0.00 | 0.00 | 62 | 1007.7 |
| 20260903230003 | 90 | 147 | 6.0 | 12.0 | 0.00 | 0.00 | 0.00 | 61 | 1007.7 |
| 20260903225424 | 90 | 145 | 5.0 | 11.0 | 0.00 | 0.00 | 0.00 | 61 | 1007.6 |
| 20260903224524 | 90 | 143 | 4.0 | 11.0 | 0.00 | 0.00 | 0.00 | 61 | 1007.5 |
| 20260903223603 | 91 | 145 | 4.0 | 10.0 | 0.00 | 0.00 | 0.00 | 61 | 1007.5 |
| 20260903222703 | 91 | 139 | 5.0 | 12.0 | 0.00 | 0.00 | 0.00 | 60 | 1007.6 |
| 20260903221804 | 92 | 136 | 5.0 | 13.0 | 0.00 | 0.00 | 0.00 | 59 | 1007.6 |
| 20260903220903 | 93 | 139 | 6.0 | 16.0 | 0.00 | 0.00 | 0.00 | 60 | 1007.6 |
| 20260903220003 | 93 | 139 | 5.0 | 16.0 | 0.00 | 0.00 | 0.00 | 61 | 1007.6 |
| 20260903215403 | 92 | 140 | 5.0 | 14.0 | 0.00 | 0.00 | 0.00 | 62 | 1007.6 |
| 20260903214525 | 92 | 142 | 6.0 | 14.0 | 0.00 | 0.00 | 0.00 | 61 | 1007.6 |
| 20260903213603 | 92 | 144 | 5.0 | 10.0 | 0.00 | 0.00 | 0.00 | 62 | 1007.7 |
| 20260903212703 | 91 | 150 | 6.0 | 12.0 | 0.00 | 0.00 | 0.00 | 64 | 1007.7 |
| 20260903211803 | 91 | 142 | 5.0 | 11.0 | 0.00 | 0.00 | 0.00 | 63 | 1007.8 |
| 20260903210904 | 91 | 145 | 5.0 | 12.0 | 0.00 | 0.00 | 0.00 | 64 | 1007.8 |
| 20260903210004 | 90 | 151 | 5.0 | 12.0 | 0.00 | 0.00 | 0.00 | 66 | 1008.0 |
| 20260903205425 | 90 | 151 | 6.0 | 12.0 | 0.00 | 0.00 | 0.00 | 65 | 1008.0 |
| 20260903204525 | 90 | 145 | 7.0 | 12.0 | 0.00 | 0.00 | 0.00 | 66 | 1008.1 |
| 20260903203603 | 89 | 152 | 5.0 | 13.0 | 0.00 | 0.00 | 0.00 | 68 | 1008.3 |
| 20260903202704 | 89 | 154 | 6.0 | 14.0 | 0.00 | 0.00 | 0.00 | 68 | 1008.3 |
| 20260903201803 | 88 | 151 | 4.0 | 13.0 | 0.00 | 0.00 | 0.00 | 69 | 1008.4 |
| 20260903200904 | 87 | 160 | 7.0 | 17.0 | 0.00 | 0.00 | 0.00 | 71 | 1008.4 |
| 20260903200004 | 87 | 148 | 7.0 | 17.0 | 0.00 | 0.00 | 0.00 | 70 | 1008.5 |
| 20260903195424 | 87 | 151 | 7.0 | 16.0 | 0.00 | 0.00 | 0.00 | 70 | 1008.6 |
| 20260903194503 | 87 | 157 | 6.0 | 14.0 | 0.00 | 0.00 | 0.00 | 71 | 1008.7 |
| 20260903193603 | 87 | 154 | 7.0 | 16.0 | 0.00 | 0.00 | 0.00 | 71 | 1008.8 |
| 20260903192703 | 87 | 159 | 7.0 | 17.0 | 0.00 | 0.00 | 0.00 | 71 | 1008.9 |
| 20260903191804 | 87 | 165 | 6.0 | 14.0 | 0.00 | 0.00 | 0.00 | 71 | 1009.1 |
| 20260903190904 | 87 | 162 | 7.0 | 19.0 | 0.00 | 0.00 | 0.00 | 73 | 1009.3 |
| 20260903190003 | 86 | 168 | 7.0 | 15.0 | 0.00 | 0.00 | 0.00 | 73 | 1009.4 |
| 20260903185403 | 86 | 164 | 8.0 | 18.0 | 0.00 | 0.00 | 0.00 | 73 | 1009.5 |
| 20260903184503 | 86 | 157 | 8.0 | 18.0 | 0.00 | 0.00 | 0.00 | 73 | 1009.6 |
| 20260903183603 | 86 | 154 | 8.0 | 17.0 | 0.00 | 0.00 | 0.00 | 74 | 1009.7 |
| 20260903182725 | 85 | 161 | 7.0 | 19.0 | 0.00 | 0.00 | 0.00 | 75 | 1009.9 |
| 20260903181803 | 85 | 164 | 7.0 | 16.0 | 0.00 | 0.00 | 0.00 | 76 | 1010.1 |
| 20260903180904 | 84 | 157 | 7.0 | 14.0 | 0.00 | 0.00 | 0.00 | 76 | 1010.1 |
| 20260903180024 | 84 | 160 | 7.0 | 15.0 | 0.00 | 0.00 | 0.00 | 76 | 1010.2 |
| 20260903175403 | 84 | 155 | 6.0 | 16.0 | 0.00 | 0.00 | 0.00 | 77 | 1010.3 |
| 20260903174504 | 84 | 162 | 7.0 | 15.0 | 0.00 | 0.00 | 0.00 | 76 | 1010.5 |
| 20260903173603 | 84 | 159 | 7.0 | 15.0 | 0.00 | 0.00 | 0.00 | 76 | 1010.5 |
| 20260903172703 | 84 | 155 | 7.0 | 15.0 | 0.00 | 0.00 | 0.00 | 75 | 1010.6 |
| 20260903171804 | 85 | 156 | 7.0 | 18.0 | 0.00 | 0.00 | 0.00 | 75 | 1010.7 |
| 20260903170924 | 85 | 148 | 7.0 | 16.0 | 0.00 | 0.00 | 0.00 | 75 | 1010.7 |
| 20260903170025 | 85 | 157 | 6.0 | 15.0 | 0.00 | 0.00 | 0.00 | 75 | 1010.6 |
| 20260903165404 | 85 | 160 | 7.0 | 15.0 | 0.00 | 0.00 | 0.00 | 75 | 1010.6 |
| 20260903164525 | 85 | 163 | 6.0 | 15.0 | 0.00 | 0.00 | 0.00 | 75 | 1010.6 |
| 20260903163604 | 85 | 168 | 6.0 | 14.0 | 0.00 | 0.00 | 0.00 | 74 | 1010.5 |
| 20260903162704 | 85 | 163 | 7.0 | 15.0 | 0.00 | 0.00 | 0.00 | 74 | 1010.5 |
| 20260903161825 | 85 | 166 | 6.0 | 16.0 | 0.00 | 0.00 | 0.00 | 74 | 1010.5 |
| 20260903160903 | 85 | 165 | 7.0 | 12.0 | 0.00 | 0.00 | 0.00 | 75 | 1010.5 |
| 20260903160003 | 84 | 166 | 6.0 | 14.0 | 0.00 | 0.00 | 0.00 | 76 | 1010.4 |
| 20260903155424 | 84 | 162 | 6.0 | 13.0 | 0.00 | 0.00 | 0.00 | 77 | 1010.3 |
| 20260903154503 | 84 | 163 | 6.0 | 12.0 | 0.00 | 0.00 | 0.00 | 77 | 1010.4 |
| 20260903153624 | 84 | 163 | 6.0 | 14.0 | 0.00 | 0.00 | 0.00 | 77 | 1010.4 |
| 20260903152703 | 84 | 160 | 6.0 | 14.0 | 0.00 | 0.00 | 0.00 | 78 | 1010.4 |
| 20260903151803 | 84 | 171 | 6.0 | 13.0 | 0.00 | 0.00 | 0.00 | 78 | 1010.3 |
| 20260903150903 | 84 | 167 | 6.0 | 15.0 | 0.00 | 0.00 | 0.00 | 77 | 1010.3 |